{"data":{"norad_id":68210,"intl_designator":"2026-053D","name":"STARLINK-37119","alt_names":[],"object_type":"PAYLOAD","status":"ACTIVE","operator":null,"country":"US","launch_date":"2026-03-17","launch_site_code":"AFWTR","launch_vehicle":null,"mission":null,"orbit_class":"UNKNOWN","rcs_meters":null,"size_class":null,"mass_kg":null,"dimensions":null,"purposes":["comms"],"wikipedia_slug":null,"has_3d_model":false,"image_url":null,"decayed_at":null,"tle_current":{"epoch":"2026-09-18T21:30:30.778848Z","epoch_age_seconds":189750,"freshness":"STALE","line1":"1 68210U 26053D   26261.89618957  .00013644  00000+0  42386-3 0  9996","line2":"2 68210  97.2848 135.6340 0001788  34.1713 325.9645 15.33469587 29828","mean_motion":15.33469587,"eccentricity":0.0001788,"inclination_deg":97.2848,"raan_deg":135.634,"arg_perigee_deg":34.1713,"mean_anomaly_deg":325.9645,"bstar":0.00042386,"rev_number":2982,"period_min":93.904699004637,"perigee_km":464.24638490648,"apogee_km":466.69365877749,"semimajor_km":6843.607021842,"source":"CELESTRAK","updated_at":"2026-09-20T09:00:43.832850Z"}}}